• In Hungary
  • List of Countries
  • For 7 days
  • Water Temperature
  • Satellite Maps
  • Weather Map
  • News
  • Weather Widgets
  • user-avatar
    Login

    Hourly Weather Stanovoe

    Today, 20 October, Saturday

    Time Temperature Precipitation Wind Pressure Humidity
    00:00 +12°C° 0 mm 2 mps 741 mmHg 90%
    01:00 +12°C° 0 mm 2 mps 741 mmHg 92%
    02:00 +10°C° 0 mm 2 mps 741 mmHg 95%
    03:00 +10°C° 0 mm 3 mps 741 mmHg 95%
    04:00 +9°C° 0 mm 3 mps 741 mmHg 96%
    05:00 +9°C° 0 mm 3 mps 741 mmHg 96%
    06:00 +9°C° 0 mm 3 mps 741 mmHg 94%
    07:00 +10°C° 0 mm 3 mps 742 mmHg 92%
    08:00 +10°C° 0 mm 4 mps 742 mmHg 88%
    09:00 +11°C° 0 mm 4 mps 742 mmHg 82%
    10:00 +12°C° 0 mm 4 mps 742 mmHg 77%
    11:00 +13°C° 0 mm 4 mps 742 mmHg 71%
    12:00 +13°C° 0 mm 4 mps 742 mmHg 68%
    13:00 +13°C° 0 mm 4 mps 742 mmHg 65%
    14:00 +13°C° 0 mm 4 mps 742 mmHg 62%
    15:00 +12°C° 0 mm 3 mps 742 mmHg 65%
    16:00 +11°C° 0 mm 3 mps 742 mmHg 67%
    17:00 +10°C° 0 mm 3 mps 742 mmHg 70%
    18:00 +9°C° 0 mm 3 mps 743 mmHg 71%
    19:00 +8°C° 0 mm 3 mps 743 mmHg 72%
    20:00 +8°C° 0 mm 3 mps 743 mmHg 73%
    21:00 +7°C° 0 mm 3 mps 743 mmHg 74%
    22:00 +7°C° 0 mm 3 mps 743 mmHg 75%
    23:00 +5°C° 0 mm 3 mps 743 mmHg 76%

    Tomorrow, 21 October, Sunday

    Time Temperature Precipitation Wind Pressure Humidity
    00:00 +5°C° 0 mm 3 mps 743 mmHg 77%
    01:00 +5°C° 0 mm 3 mps 743 mmHg 79%
    02:00 +4°C° 0 mm 3 mps 744 mmHg 80%
    03:00 +4°C° 0 mm 3 mps 744 mmHg 81%
    04:00 +4°C° 0 mm 3 mps 744 mmHg 82%
    05:00 +3°C° 0 mm 3 mps 744 mmHg 83%
    06:00 +4°C° 0 mm 3 mps 744 mmHg 80%
    07:00 +4°C° 0 mm 3 mps 744 mmHg 77%
    08:00 +5°C° 0 mm 3 mps 745 mmHg 75%
    09:00 +7°C° 0 mm 3 mps 745 mmHg 70%
    10:00 +9°C° 0 mm 3 mps 745 mmHg 64%
    11:00 +10°C° 0 mm 4 mps 745 mmHg 59%
    12:00 +10°C° 0 mm 3 mps 745 mmHg 58%
    13:00 +11°C° 0 mm 3 mps 745 mmHg 56%
    14:00 +11°C° 0 mm 3 mps 745 mmHg 55%
    15:00 +10°C° 0 mm 3 mps 745 mmHg 60%
    16:00 +9°C° 0 mm 3 mps 745 mmHg 66%
    17:00 +8°C° 0 mm 3 mps 745 mmHg 71%
    18:00 +7°C° 0 mm 3 mps 746 mmHg 74%
    19:00 +7°C° 0 mm 3 mps 746 mmHg 77%
    20:00 +5°C° 0 mm 3 mps 746 mmHg 79%
    21:00 +5°C° 0 mm 3 mps 746 mmHg 81%
    22:00 +4°C° 0 mm 3 mps 746 mmHg 83%
    23:00 +4°C° 0 mm 3 mps 746 mmHg 85%

    Day after tomorrow, 22 October, Monday

    Time Temperature Precipitation Wind Pressure Humidity
    00:00 +4°C° 0 mm 3 mps 746 mmHg 86%
    01:00 +3°C° 0 mm 3 mps 746 mmHg 86%
    02:00 +3°C° 0 mm 3 mps 746 mmHg 87%
    03:00 +3°C° 0 mm 3 mps 746 mmHg 88%
    04:00 +3°C° 0 mm 3 mps 746 mmHg 89%
    05:00 +3°C° 0 mm 3 mps 746 mmHg 89%
    06:00 +3°C° 0 mm 3 mps 746 mmHg 86%
    07:00 +4°C° 0 mm 3 mps 746 mmHg 84%
    08:00 +4°C° 0 mm 3 mps 746 mmHg 81%
    09:00 +7°C° 0 mm 3 mps 746 mmHg 76%
    10:00 +8°C° 0 mm 3 mps 746 mmHg 71%
    11:00 +10°C° 0 mm 2 mps 745 mmHg 66%
    12:00 +10°C° 0 mm 2 mps 745 mmHg 67%
    13:00 +12°C° 0 mm 2 mps 744 mmHg 67%
    14:00 +12°C° 0 mm 2 mps 744 mmHg 67%
    15:00 +12°C° 0 mm 2 mps 744 mmHg 72%
    16:00 +10°C° 0 mm 2 mps 743 mmHg 77%
    17:00 +9°C° 0 mm 2 mps 743 mmHg 82%
    18:00 +9°C° 0 mm 2 mps 742 mmHg 84%
    19:00 +9°C° 0 mm 2 mps 742 mmHg 85%
    20:00 +9°C° 0 mm 2 mps 742 mmHg 87%
    21:00 +9°C° 0.4 mm 2 mps 741 mmHg 89%
    22:00 +10°C° 0.4 mm 1 mps 740 mmHg 91%
    23:00 +10°C° 0.4 mm 1 mps 740 mmHg 93%

    23 October, Tuesday

    Time Temperature Precipitation Wind Pressure Humidity
    00:00 +10°C° 0.5 mm 1 mps 739 mmHg 93%
    01:00 +10°C° 0.5 mm 1 mps 739 mmHg 94%
    02:00 +10°C° 0.5 mm 1 mps 738 mmHg 94%
    03:00 +8°C° 0.6 mm 2 mps 737 mmHg 93%
    04:00 +8°C° 0.6 mm 2 mps 737 mmHg 92%
    05:00 +8°C° 0.6 mm 3 mps 736 mmHg 92%
    06:00 +7°C° 0.7 mm 3 mps 736 mmHg 89%
    07:00 +6°C° 0.7 mm 4 mps 736 mmHg 86%
    08:00 +5°C° 0.7 mm 4 mps 736 mmHg 83%
    09:00 +6°C° 0 mm 4 mps 736 mmHg 77%
    10:00 +7°C° 0 mm 4 mps 736 mmHg 70%
    11:00 +7°C° 0 mm 4 mps 736 mmHg 64%
    12:00 +8°C° 0 mm 5 mps 736 mmHg 63%
    13:00 +8°C° 0 mm 5 mps 735 mmHg 63%
    14:00 +8°C° 0 mm 5 mps 735 mmHg 62%
    15:00 +7°C° 0 mm 4 mps 735 mmHg 66%
    16:00 +7°C° 0 mm 4 mps 734 mmHg 70%
    17:00 +7°C° 0 mm 3 mps 734 mmHg 75%
    18:00 +6°C° 0 mm 4 mps 734 mmHg 76%
    19:00 +5°C° 0 mm 4 mps 733 mmHg 77%
    20:00 +5°C° 0 mm 4 mps 733 mmHg 79%
    21:00 +5°C° 0 mm 4 mps 733 mmHg 80%
    22:00 +5°C° 0 mm 4 mps 732 mmHg 81%
    23:00 +5°C° 0 mm 4 mps 732 mmHg 83%

    24 October, Wednesday

    Time Temperature Precipitation Wind Pressure Humidity
    00:00 +5°C° 0 mm 4 mps 731 mmHg 82%
    01:00 +5°C° 0 mm 4 mps 731 mmHg 82%
    02:00 +5°C° 0 mm 4 mps 730 mmHg 81%
    03:00 +5°C° 0 mm 4 mps 729 mmHg 80%
    04:00 +4°C° 0 mm 4 mps 729 mmHg 78%
    05:00 +4°C° 0 mm 4 mps 728 mmHg 77%
    06:00 +3°C° 0 mm 5 mps 728 mmHg 76%
    07:00 +3°C° 0 mm 6 mps 727 mmHg 75%
    08:00 +3°C° 0 mm 6 mps 727 mmHg 74%
    09:00 +4°C° 0.1 mm 7 mps 726 mmHg 72%
    10:00 +5°C° 0.1 mm 7 mps 725 mmHg 71%
    11:00 +5°C° 0.1 mm 8 mps 725 mmHg 69%
    12:00 +5°C° 0.2 mm 8 mps 724 mmHg 71%
    13:00 +5°C° 0.2 mm 8 mps 723 mmHg 74%
    14:00 +6°C° 0.2 mm 8 mps 722 mmHg 77%
    15:00 +6°C° 0.7 mm 7 mps 722 mmHg 80%
    16:00 +5°C° 0.7 mm 7 mps 721 mmHg 83%
    17:00 +5°C° 0.7 mm 6 mps 720 mmHg 86%
    18:00 +5°C° 0.7 mm 6 mps 720 mmHg 87%
    19:00 +5°C° 0.7 mm 6 mps 719 mmHg 88%
    20:00 +5°C° 0.7 mm 6 mps 719 mmHg 88%
    21:00 +5°C° 0.3 mm 6 mps 718 mmHg 88%
    22:00 +5°C° 0.3 mm 6 mps 718 mmHg 87%
    23:00 +5°C° 0.3 mm 6 mps 718 mmHg 87%

    25 October, Thursday

    Time Temperature Precipitation Wind Pressure Humidity
    00:00 +5°C° 0.1 mm 6 mps 718 mmHg 86%
    01:00 +5°C° 0.1 mm 6 mps 718 mmHg 86%
    02:00 +6°C° 0.1 mm 5 mps 718 mmHg 85%
    03:00 +5°C° 0 mm 5 mps 718 mmHg 85%
    04:00 +3°C° 0 mm 6 mps 718 mmHg 84%
    05:00 +3°C° 0 mm 6 mps 718 mmHg 83%
    06:00 +3°C° 0 mm 6 mps 718 mmHg 83%
    07:00 +2°C° 0 mm 6 mps 718 mmHg 83%
    08:00 +2°C° 0 mm 6 mps 718 mmHg 83%
    09:00 +3°C° 0 mm 6 mps 718 mmHg 82%
    10:00 +3°C° 0 mm 6 mps 719 mmHg 81%
    11:00 +3°C° 0 mm 6 mps 719 mmHg 80%
    12:00 +3°C° 0.4 mm 6 mps 719 mmHg 80%
    13:00 +3°C° 0.4 mm 6 mps 719 mmHg 80%
    14:00 +3°C° 0.4 mm 6 mps 719 mmHg 80%
    15:00 +3°C° 0.5 mm 6 mps 720 mmHg 79%
    16:00 +3°C° 0.5 mm 6 mps 721 mmHg 79%
    17:00 +3°C° 0.5 mm 6 mps 721 mmHg 78%
    18:00 +2°C° 0.1 mm 6 mps 722 mmHg 79%
    19:00 +2°C° 0.1 mm 6 mps 722 mmHg 79%
    20:00 +2°C° 0.1 mm 6 mps 723 mmHg 79%
    21:00 +2°C° 0.1 mm 6 mps 724 mmHg 79%
    22:00 +1°C° 0.1 mm 6 mps 724 mmHg 78%
    23:00 +1°C° 0.1 mm 6 mps 725 mmHg 78%
    Show more